Charlotte, NC

7:25 AM EST on December 17, 2017 (GMT -0500)
Charlotte-Douglas International

Weather History for KCLT - March, 2015

Change the Weather History Date:

Saturday, March 21, 2015

  Actual Average Record
Temperature  
Mean Temperature 56 °F 53 °F  
Max Temperature 71 °F 65 °F 87 °F (1935)
Min Temperature 40 °F 41 °F 18 °F (1965)
Degree Days  
Heating Degree Days 9 13  
Month to date heating degree days 242 322  
Since 1 July heating degree days 3013 3021  
Cooling Degree Days 0 0  
Month to date cooling degree days 7 0  
Year to date cooling degree days 7 0  
Growing Degree Days 5 (Base 50)    
Moisture  
Dew Point 44 °F    
Average Humidity 68    
Maximum Humidity 100    
Minimum Humidity 35    
Precipitation  
Precipitation 0.00 in 0.12 in 1.79 in (1961)
Month to date precipitation 1.67 2.79  
Year to date precipitation 7.49 9.52  
Snow  
Snow 0.00 in 0.00 in 0.20 in (1908)
Month to date snowfall 0.0 0.5  
Since 1 July snowfall 3.1 4.2  
Snow Depth 0.00 in    
Sea Level Pressure  
Sea Level Pressure 30.08 in    
Wind  
Wind Speed 2 mph (WSW)    
Max Wind Speed 7 mph    
Max Gust Speed 9 mph    
Visibility 8 miles    
Events      
T = Trace of Precipitation, MM = Missing Value Source: NWS Daily Summary

Daily Weather History Graph

Daily Weather History Graph

Search for Another Location

Airport or City:

Trip Planner

Search our weather history database for the weather conditions in past years. The results will help you decide how hot, cold, wet, or windy it might be!

Date:

Astronomy

Mar. 21, 2015 Rise Set
Actual Time 7:26 AM EDT 7:36 PM EDT
Civil Twilight 7:01 AM EDT 8:01 PM EDT
Nautical Twilight 6:31 AM EDT 8:31 PM EDT
Astronomical Twilight 6:01 AM EDT 9:01 PM EDT
Moon 8:13 AM EDT (3/21) 9:21 PM EDT (3/21)
Length of Visible Light 13h 00m
Length of Day
12h 09m
New Moon, 2% of the Moon is Illuminated
Mar 21
New Moon
Mar 27
First Quarter
Apr 4
Full
Apr 11
Last Quarter
Apr 18
New

Hourly Weather History & Observations

Time (EDT) Temp. Windchill Dew Point Humidity Pressure Visibility Wind Dir Wind Speed Gust Speed Precip Events Conditions
12:52 AM 51.1 °F - 46.0 °F 83% 30.09 in 10.0 mi Calm Calm - N/A   Scattered Clouds
1:52 AM 48.9 °F - 45.0 °F 86% 30.09 in 10.0 mi Calm Calm - N/A   Scattered Clouds
2:52 AM 46.0 °F - 44.1 °F 93% 30.08 in 8.0 mi Calm Calm - N/A   Partly Cloudy
3:52 AM 43.0 °F - 43.0 °F 100% 30.08 in 7.0 mi Calm Calm - N/A   Clear
4:52 AM 44.1 °F - 43.0 °F 96% 30.07 in 7.0 mi Calm Calm - N/A   Mostly Cloudy
5:01 AM 44.6 °F - 42.8 °F 93% 30.06 in 1.5 mi Calm Calm - N/A   Partly Cloudy
5:04 AM 44.6 °F - 42.8 °F 93% 30.06 in 0.8 mi Calm Calm - N/A   Scattered Clouds
5:06 AM 42.8 °F - 41.0 °F 93% 30.06 in 7.0 mi Calm Calm - N/A   Scattered Clouds
5:52 AM 42.1 °F - 39.9 °F 92% 30.07 in 6.0 mi Calm Calm - N/A   Partly Cloudy
6:52 AM 44.1 °F 42.5 °F 41.0 °F 89% 30.09 in 5.0 mi NW 3.5 mph - N/A   Mostly Cloudy
7:52 AM 44.1 °F 42.5 °F 41.0 °F 89% 30.13 in 6.0 mi NW 3.5 mph - N/A   Overcast
8:52 AM 46.9 °F - 44.1 °F 90% 30.13 in 5.0 mi Calm Calm - N/A   Scattered Clouds
9:52 AM 55.9 °F - 46.9 °F 72% 30.13 in 10.0 mi Calm Calm - N/A   Scattered Clouds
10:52 AM 59.0 °F - 44.6 °F 59% 30.16 in 10.0 mi Calm Calm - N/A   Scattered Clouds
11:52 AM 63.0 °F - 46.0 °F 54% 30.14 in 10.0 mi Calm Calm - N/A   Mostly Cloudy
12:52 PM 64.9 °F - 45.0 °F 48% 30.12 in 10.0 mi SW 4.6 mph - N/A   Mostly Cloudy
1:52 PM 66.9 °F - 44.1 °F 44% 30.10 in 10.0 mi Calm Calm - N/A   Scattered Clouds
2:52 PM 68.0 °F - 44.1 °F 42% 30.08 in 10.0 mi SW 4.6 mph - N/A   Scattered Clouds
3:52 PM 68.0 °F - 44.1 °F 42% 30.05 in 10.0 mi Calm Calm - N/A   Mostly Cloudy
4:52 PM 71.1 °F - 44.1 °F 38% 30.02 in 10.0 mi Calm Calm - N/A   Mostly Cloudy
5:52 PM 71.6 °F - 42.8 °F 35% 30.03 in 10.0 mi West 5.8 mph - N/A   Mostly Cloudy
6:52 PM 69.1 °F - 42.1 °F 38% 30.03 in 10.0 mi SSW 3.5 mph - N/A   Overcast
7:52 PM 66.0 °F - 43.0 °F 43% 30.04 in 10.0 mi Calm Calm - N/A   Overcast
8:52 PM 63.0 °F - 45.0 °F 52% 30.05 in 10.0 mi SSW 5.8 mph - N/A   Overcast
9:52 PM 63.0 °F - 46.0 °F 54% 30.06 in 10.0 mi SW 3.5 mph - N/A   Overcast
10:52 PM 62.6 °F - 46.4 °F 55% 30.06 in 10.0 mi SW 3.5 mph - N/A   Overcast
11:52 PM 57.0 °F - 46.9 °F 69% 30.04 in 10.0 mi Calm Calm - N/A   Overcast